Preview of NWS' New Version of Forecast
This preview is not operational and should not be used for support decisions.

Regional Weather Roundup (RWR)

Issued by Charleston, WV (RLX)

                            
347 
ASUS41 KRLX 212310
RWRRLX
West Virginia Regional Weather Roundup
National Weather Service Charleston WV
700 PM EDT THU JUN 21 2018

Note: "fair" indicates few or no clouds below 12,000 feet with no
significant weather and/or obstructions to visibility.

WVZ003-220000-
Northern Panhandle of West Virginia
  
CITY           SKY/WX    TMP DP  RH WIND       PRES   REMARKS
WHEELING       FAIR      73  65  75 E5        29.81S                  
$$

WVZ009-220000-
Northwest West Virginia
  
CITY           SKY/WX    TMP DP  RH WIND       PRES   REMARKS
PARKERSBURG    LGT RAIN  72  69  90 E5        29.80F                  
$$

WVZ006-220000-
Western West Virginia
  
CITY           SKY/WX    TMP DP  RH WIND       PRES   REMARKS
HUNTINGTON     LGT RAIN  74  70  87 SW8       29.76R FOG              
$$

WVZ015-220000-
West Central West Virginia
  
CITY           SKY/WX    TMP DP  RH WIND       PRES   REMARKS
CHARLESTON     TSTM      72  71  97 N3        29.76F FOG              
$$

WVZ022-031-220000-
North Central West Virginia
  
CITY           SKY/WX    TMP DP  RH WIND       PRES   REMARKS
CLARKSBURG     LGT RAIN  74  69  85 CALM      29.81S                  
MORGANTOWN     FAIR      74  67  78 CALM      29.82S                  
$$

WVZ025-035-042-045-220000-
Southern West Virginia
  
CITY           SKY/WX    TMP DP  RH WIND       PRES   REMARKS
BECKLEY        LGT RAIN  69  66  90 S3        29.86S                  
LOGAN          PTSUNNY   72  72 100 CALM      29.81R                  
BLUEFIELD      PTSUNNY   68  68 100 W6        29.89S                  
LEWISBURG      LGT RAIN  71  69  93 CALM      29.87S                  
$$

WVZ047-220000-
Northern Mountains of West Virginia
  
CITY           SKY/WX    TMP DP  RH WIND       PRES   REMARKS
ELKINS         LGT RAIN  71  68  90 CALM      29.85R                  
$$

WVZ052-220000-
Eastern Panhandle of West Virginia
  
CITY           SKY/WX    TMP DP  RH WIND       PRES   REMARKS
MARTINSBURG    FAIR      78  65  63 N6        29.80S                  
PETERSBURG     LGT RAIN  72  69  90 CALM      29.82S                  
$$